Year,Month,Day,Hour,Minute,Value (Times are PST for temperature in C)
2011,05,24,00,00,7.80
2011,05,24,00,01,7.70
2011,05,24,00,02,7.70
2011,05,24,00,03,7.60
2011,05,24,00,04,7.60
2011,05,24,00,05,7.50
2011,05,24,00,06,7.50
2011,05,24,00,07,7.50
2011,05,24,00,08,7.60
2011,05,24,00,09,7.60
2011,05,24,00,10,7.60
2011,05,24,00,11,7.60
2011,05,24,00,12,7.60
2011,05,24,00,13,7.70
2011,05,24,00,14,7.70
2011,05,24,00,15,7.70
2011,05,24,00,16,7.70
2011,05,24,00,17,7.70
2011,05,24,00,18,7.70
2011,05,24,00,19,7.70
2011,05,24,00,20,7.70
2011,05,24,00,21,7.60
2011,05,24,00,22,7.60
2011,05,24,00,23,7.60
2011,05,24,00,24,7.60
2011,05,24,00,25,7.60
2011,05,24,00,26,7.60
2011,05,24,00,27,7.60
2011,05,24,00,28,7.60
2011,05,24,00,29,7.60
2011,05,24,00,30,7.70
2011,05,24,00,31,7.70
2011,05,24,00,32,7.70
2011,05,24,00,33,7.70
2011,05,24,00,34,7.80
2011,05,24,00,35,7.80
2011,05,24,00,36,7.80
2011,05,24,00,37,7.80
2011,05,24,00,38,7.80
2011,05,24,00,39,7.90
2011,05,24,00,40,7.90
2011,05,24,00,41,7.90
2011,05,24,00,42,7.90
2011,05,24,00,43,8.00
2011,05,24,00,44,8.00
2011,05,24,00,45,8.00
2011,05,24,00,46,8.00
2011,05,24,00,47,8.00
2011,05,24,00,48,8.00
2011,05,24,00,49,8.00
2011,05,24,00,50,8.00
2011,05,24,00,51,8.00
2011,05,24,00,52,8.00
2011,05,24,00,53,8.00
2011,05,24,00,54,8.10
2011,05,24,00,55,8.10
2011,05,24,00,56,8.10
2011,05,24,00,57,8.10
2011,05,24,00,58,8.10
2011,05,24,00,59,8.10
2011,05,24,01,00,8.10
2011,05,24,01,01,8.10
2011,05,24,01,02,8.10
2011,05,24,01,03,8.10
2011,05,24,01,04,8.10
2011,05,24,01,05,8.10
2011,05,24,01,06,8.10
2011,05,24,01,07,8.10
2011,05,24,01,08,8.10
2011,05,24,01,09,8.10
2011,05,24,01,10,8.10
2011,05,24,01,11,8.10
2011,05,24,01,12,8.10
2011,05,24,01,13,8.10
2011,05,24,01,14,8.10
2011,05,24,01,15,8.10
2011,05,24,01,16,8.10
2011,05,24,01,17,8.10
2011,05,24,01,18,8.10
2011,05,24,01,19,8.10
2011,05,24,01,20,8.10
2011,05,24,01,21,8.10
2011,05,24,01,22,8.10
2011,05,24,01,23,8.00
2011,05,24,01,24,8.00
2011,05,24,01,25,8.00
2011,05,24,01,26,8.00
2011,05,24,01,27,8.00
2011,05,24,01,28,7.90
2011,05,24,01,29,7.80
2011,05,24,01,30,7.80
2011,05,24,01,31,7.80
2011,05,24,01,32,7.70
2011,05,24,01,33,7.70
2011,05,24,01,34,7.70
2011,05,24,01,35,7.60
2011,05,24,01,36,7.60
2011,05,24,01,37,7.60
2011,05,24,01,38,7.60
2011,05,24,01,39,7.50
2011,05,24,01,40,7.50
2011,05,24,01,41,7.40
2011,05,24,01,42,7.40
2011,05,24,01,43,7.40
2011,05,24,01,44,7.40
2011,05,24,01,45,7.40
2011,05,24,01,46,7.40
2011,05,24,01,47,7.30
2011,05,24,01,48,7.30
2011,05,24,01,49,7.30
2011,05,24,01,50,7.30
2011,05,24,01,51,7.30
2011,05,24,01,52,7.30
2011,05,24,01,53,7.20
2011,05,24,01,54,7.30
2011,05,24,01,55,7.30
2011,05,24,01,56,7.30
2011,05,24,01,57,7.30
2011,05,24,01,58,7.30
2011,05,24,01,59,7.30
2011,05,24,02,00,7.30
2011,05,24,02,01,7.20
2011,05,24,02,02,7.20
2011,05,24,02,03,7.20
2011,05,24,02,04,7.20
2011,05,24,02,05,7.10
2011,05,24,02,06,7.10
2011,05,24,02,07,7.00
2011,05,24,02,08,7.00
2011,05,24,02,09,6.90
2011,05,24,02,10,6.80
2011,05,24,02,11,6.80
2011,05,24,02,12,6.80
2011,05,24,02,13,6.80
2011,05,24,02,14,6.80
2011,05,24,02,15,6.80
2011,05,24,02,16,6.80
2011,05,24,02,17,6.80
2011,05,24,02,18,6.90
2011,05,24,02,19,6.90
2011,05,24,02,20,7.00
2011,05,24,02,21,7.00
2011,05,24,02,22,7.10
2011,05,24,02,23,7.10
2011,05,24,02,24,7.20
2011,05,24,02,25,7.20
2011,05,24,02,26,7.20
2011,05,24,02,27,7.30
2011,05,24,02,28,7.30
2011,05,24,02,29,7.40
2011,05,24,02,30,7.50
2011,05,24,02,31,7.50
2011,05,24,02,32,7.60
2011,05,24,02,33,7.60
2011,05,24,02,34,7.60
2011,05,24,02,35,7.60
2011,05,24,02,36,7.60
2011,05,24,02,37,7.60
2011,05,24,02,38,7.60
2011,05,24,02,39,7.60
2011,05,24,02,40,7.50
2011,05,24,02,41,7.50
2011,05,24,02,42,7.40
2011,05,24,02,43,7.30
2011,05,24,02,44,7.20
2011,05,24,02,45,7.20
2011,05,24,02,46,7.20
2011,05,24,02,47,7.20
2011,05,24,02,48,7.10
2011,05,24,02,49,7.10
2011,05,24,02,50,7.10
2011,05,24,02,51,7.10
2011,05,24,02,52,7.10
2011,05,24,02,53,7.10
2011,05,24,02,54,7.20
2011,05,24,02,55,7.20
2011,05,24,02,56,7.30
2011,05,24,02,57,7.30
2011,05,24,02,58,7.30
2011,05,24,02,59,7.40
2011,05,24,03,00,7.40
2011,05,24,03,01,7.50
2011,05,24,03,02,7.60
2011,05,24,03,06,7.80
2011,05,24,03,07,7.80
2011,05,24,03,08,7.90
2011,05,24,03,09,7.90
2011,05,24,03,10,8.00
2011,05,24,03,11,8.00
2011,05,24,03,12,8.10
2011,05,24,03,13,8.10
2011,05,24,03,14,8.20
2011,05,24,03,15,8.20
2011,05,24,03,16,8.30
2011,05,24,03,17,8.30
2011,05,24,03,18,8.30
2011,05,24,03,19,8.30
2011,05,24,03,20,8.40
2011,05,24,03,21,8.40
2011,05,24,03,22,8.40
2011,05,24,03,23,8.40
2011,05,24,03,24,8.40
2011,05,24,03,25,8.40
2011,05,24,03,26,8.40
2011,05,24,03,27,8.40
2011,05,24,03,28,8.40
2011,05,24,03,29,8.40
2011,05,24,03,30,8.40
2011,05,24,03,31,8.40
2011,05,24,03,32,8.40
2011,05,24,03,33,8.40
2011,05,24,03,34,8.40
2011,05,24,03,35,8.40
2011,05,24,03,36,8.50
2011,05,24,03,37,8.50
2011,05,24,03,38,8.50
2011,05,24,03,39,8.50
2011,05,24,03,40,8.50
2011,05,24,03,41,8.60
2011,05,24,03,42,8.60
2011,05,24,03,43,8.60
2011,05,24,03,44,8.60
2011,05,24,03,45,8.60
2011,05,24,03,46,8.60
2011,05,24,03,47,8.60
2011,05,24,03,48,8.60
2011,05,24,03,49,8.60
2011,05,24,03,50,8.60
2011,05,24,03,51,8.60
2011,05,24,03,52,8.60
2011,05,24,03,53,8.60
2011,05,24,03,54,8.70
2011,05,24,03,55,8.70
2011,05,24,03,56,8.70
2011,05,24,03,57,8.70
2011,05,24,03,58,8.70
2011,05,24,03,59,8.70
2011,05,24,04,00,8.70
2011,05,24,04,01,8.70
2011,05,24,04,02,8.70
2011,05,24,04,03,8.70
2011,05,24,04,04,8.70
2011,05,24,04,05,8.70
2011,05,24,04,06,8.70
2011,05,24,04,07,8.70
2011,05,24,04,08,8.70
2011,05,24,04,09,8.70
2011,05,24,04,10,8.70
2011,05,24,04,11,8.70
2011,05,24,04,12,8.70
2011,05,24,04,13,8.70
2011,05,24,04,14,8.70
2011,05,24,04,15,8.70
2011,05,24,04,16,8.70
2011,05,24,04,17,8.70
2011,05,24,04,18,8.70
2011,05,24,04,19,8.70
2011,05,24,04,20,8.70
2011,05,24,04,21,8.70
2011,05,24,04,22,8.70
2011,05,24,04,23,8.70
2011,05,24,04,24,8.70
2011,05,24,04,25,8.70
2011,05,24,04,26,8.70
2011,05,24,04,27,8.70
2011,05,24,04,28,8.70
2011,05,24,04,29,8.70
2011,05,24,04,30,8.70
2011,05,24,04,31,8.70
2011,05,24,04,32,8.80
2011,05,24,04,33,8.80
2011,05,24,04,34,8.80
2011,05,24,04,35,8.80
2011,05,24,04,36,8.80
2011,05,24,04,37,8.80
2011,05,24,04,38,8.80
2011,05,24,04,39,8.80
2011,05,24,04,40,8.80
2011,05,24,04,41,8.80
2011,05,24,04,42,8.90
2011,05,24,04,43,8.90
2011,05,24,04,44,8.90
2011,05,24,04,45,8.90
2011,05,24,04,46,8.90
2011,05,24,04,47,9.00
2011,05,24,04,48,9.00
2011,05,24,04,49,9.00
2011,05,24,04,50,9.00
2011,05,24,04,51,9.10
2011,05,24,04,52,9.10
2011,05,24,04,53,9.10
2011,05,24,04,54,9.10
2011,05,24,04,55,9.10
2011,05,24,04,56,9.10
2011,05,24,04,57,9.10
2011,05,24,04,58,9.20
2011,05,24,04,59,9.20
2011,05,24,05,00,9.20
2011,05,24,05,01,9.20
2011,05,24,05,02,9.20
2011,05,24,05,03,9.20
2011,05,24,05,04,9.20
2011,05,24,05,05,9.20
2011,05,24,05,06,9.20
2011,05,24,05,07,9.30
2011,05,24,05,08,9.30
2011,05,24,05,09,9.30
2011,05,24,05,10,9.30
2011,05,24,05,11,9.30
2011,05,24,05,12,9.30
2011,05,24,05,13,9.30
2011,05,24,05,14,9.30
2011,05,24,05,15,9.30
2011,05,24,05,16,9.30
2011,05,24,05,17,9.30
2011,05,24,05,18,9.30
2011,05,24,05,19,9.30
2011,05,24,05,20,9.30
2011,05,24,05,21,9.30
2011,05,24,05,22,9.30
2011,05,24,05,23,9.30
2011,05,24,05,24,9.30
2011,05,24,05,25,9.30
2011,05,24,05,26,9.30
2011,05,24,05,27,9.30
2011,05,24,05,28,9.40
2011,05,24,05,29,9.40
2011,05,24,05,30,9.40
2011,05,24,05,31,9.40
2011,05,24,05,32,9.40
2011,05,24,05,33,9.40
2011,05,24,05,34,9.40
2011,05,24,05,35,9.40
2011,05,24,05,36,9.40
2011,05,24,05,37,9.40
2011,05,24,05,38,9.40
2011,05,24,05,39,9.40
2011,05,24,05,40,9.40
2011,05,24,05,41,9.40
2011,05,24,05,42,9.40
2011,05,24,05,43,9.40
2011,05,24,05,44,9.40
2011,05,24,05,45,9.40
2011,05,24,05,46,9.40
2011,05,24,05,47,9.40
2011,05,24,05,48,9.40
2011,05,24,05,49,9.40
2011,05,24,05,50,9.40
2011,05,24,05,51,9.40
2011,05,24,05,52,9.40
2011,05,24,05,53,9.50
2011,05,24,05,54,9.50
2011,05,24,05,55,9.50
2011,05,24,05,56,9.50
2011,05,24,05,57,9.50
2011,05,24,05,58,9.50
2011,05,24,05,59,9.50
2011,05,24,06,00,9.50
2011,05,24,06,01,9.50
2011,05,24,06,02,9.50
2011,05,24,06,03,9.50
2011,05,24,06,04,9.50
2011,05,24,06,05,9.50
2011,05,24,06,06,9.50
2011,05,24,06,07,9.50
2011,05,24,06,08,9.50
2011,05,24,06,09,9.50
2011,05,24,06,10,9.50
2011,05,24,06,11,9.50
2011,05,24,06,12,9.50
2011,05,24,06,13,9.50
2011,05,24,06,14,9.50
2011,05,24,06,15,9.50
2011,05,24,06,16,9.50
2011,05,24,06,17,9.60
2011,05,24,06,18,9.60
2011,05,24,06,19,9.60
2011,05,24,06,20,9.60
2011,05,24,06,21,9.60
2011,05,24,06,22,9.60
2011,05,24,06,23,9.60
2011,05,24,06,24,9.60
2011,05,24,06,25,9.60
2011,05,24,06,26,9.60
2011,05,24,06,27,9.60
2011,05,24,06,28,9.70
2011,05,24,06,29,9.70
2011,05,24,06,30,9.70
2011,05,24,06,31,9.70
2011,05,24,06,32,9.70
2011,05,24,06,33,9.70
2011,05,24,06,34,9.70
2011,05,24,06,35,9.70
2011,05,24,06,36,9.70
2011,05,24,06,37,9.70
2011,05,24,06,38,9.70
2011,05,24,06,39,9.80
2011,05,24,06,40,9.80
2011,05,24,06,41,9.80
2011,05,24,06,42,9.80
2011,05,24,06,43,9.80
2011,05,24,06,44,9.80
2011,05,24,06,45,9.80
2011,05,24,06,46,9.80
2011,05,24,06,47,9.80
2011,05,24,06,48,9.80
2011,05,24,06,49,9.80
2011,05,24,06,50,9.80
2011,05,24,06,51,9.80
2011,05,24,06,52,9.80
2011,05,24,06,53,9.80
2011,05,24,06,54,9.80
2011,05,24,06,55,9.80
2011,05,24,06,56,9.80
2011,05,24,06,57,9.80
2011,05,24,06,58,9.90
2011,05,24,06,59,9.90
2011,05,24,07,00,9.90
2011,05,24,07,01,9.90
2011,05,24,07,02,9.90
2011,05,24,07,03,9.90
2011,05,24,07,04,9.90
2011,05,24,07,05,9.90
2011,05,24,07,06,9.90
2011,05,24,07,07,9.90
2011,05,24,07,08,9.90
2011,05,24,07,09,10.00
2011,05,24,07,10,10.00
2011,05,24,07,11,10.00
2011,05,24,07,12,10.00
2011,05,24,07,13,10.00
2011,05,24,07,14,10.10
2011,05,24,07,15,10.10
2011,05,24,07,16,10.10
2011,05,24,07,17,10.10
2011,05,24,07,18,10.10
2011,05,24,07,19,10.10
2011,05,24,07,20,10.10
2011,05,24,07,21,10.10
2011,05,24,07,22,10.20
2011,05,24,07,23,10.20
2011,05,24,07,24,10.20
2011,05,24,07,25,10.20
2011,05,24,07,26,10.20
2011,05,24,07,27,10.20
2011,05,24,07,28,10.20
2011,05,24,07,29,10.30
2011,05,24,07,30,10.30
2011,05,24,07,31,10.30
2011,05,24,07,32,10.30
2011,05,24,07,33,10.30
2011,05,24,07,34,10.30
2011,05,24,07,35,10.30
2011,05,24,07,36,10.30
2011,05,24,07,37,10.30
2011,05,24,07,38,10.30
2011,05,24,07,39,10.30
2011,05,24,07,40,10.30
2011,05,24,07,41,10.40
2011,05,24,07,42,10.40
2011,05,24,07,43,10.40
2011,05,24,07,44,10.40
2011,05,24,07,45,10.40
2011,05,24,07,46,10.40
2011,05,24,07,47,10.40
2011,05,24,07,48,10.40
2011,05,24,07,49,10.40
2011,05,24,07,50,10.40
2011,05,24,07,51,10.40
2011,05,24,07,52,10.50
2011,05,24,07,53,10.50
2011,05,24,07,54,10.50
2011,05,24,07,55,10.50
2011,05,24,07,56,10.50
2011,05,24,07,57,10.50
2011,05,24,07,58,10.50
2011,05,24,07,59,10.50
2011,05,24,08,00,10.50
2011,05,24,08,01,10.50
2011,05,24,08,02,10.50
2011,05,24,08,03,10.50
2011,05,24,08,04,10.40
2011,05,24,08,05,10.50
2011,05,24,08,06,10.40
2011,05,24,08,07,10.50
2011,05,24,08,08,10.50
2011,05,24,08,09,10.50
2011,05,24,08,10,10.50
2011,05,24,08,11,10.50
2011,05,24,08,12,10.50
2011,05,24,08,13,10.50
2011,05,24,08,14,10.50
2011,05,24,08,15,10.50
2011,05,24,08,16,10.50
2011,05,24,08,17,10.50
2011,05,24,08,18,10.50
2011,05,24,08,19,10.50
2011,05,24,08,20,10.50
2011,05,24,08,21,10.50
2011,05,24,08,22,10.50
2011,05,24,08,23,10.50
2011,05,24,08,24,10.50
2011,05,24,08,25,10.50
2011,05,24,08,26,10.50
2011,05,24,08,27,10.50
2011,05,24,08,28,10.40
2011,05,24,08,29,10.40
2011,05,24,08,30,10.40
2011,05,24,08,31,10.40
2011,05,24,08,32,10.40
2011,05,24,08,33,10.40
2011,05,24,08,34,10.50
2011,05,24,08,35,10.40
2011,05,24,08,36,10.50
2011,05,24,08,37,10.50
2011,05,24,08,38,10.50
2011,05,24,08,39,10.50
2011,05,24,08,40,10.50
2011,05,24,08,41,10.50
2011,05,24,08,42,10.50
2011,05,24,08,43,10.50
2011,05,24,08,44,10.50
2011,05,24,08,45,10.50
2011,05,24,08,46,10.50
2011,05,24,08,47,10.50
2011,05,24,08,48,10.50
2011,05,24,08,49,10.50
2011,05,24,08,50,10.50
2011,05,24,08,51,10.50
2011,05,24,08,52,10.50
2011,05,24,08,53,10.50
2011,05,24,08,54,10.50
2011,05,24,08,55,10.40
2011,05,24,08,56,10.50
2011,05,24,08,57,10.50
2011,05,24,08,58,10.50
2011,05,24,08,59,10.50
2011,05,24,09,00,10.50
2011,05,24,09,01,10.50
2011,05,24,09,02,10.50
2011,05,24,09,03,10.50
2011,05,24,09,04,10.50
2011,05,24,09,05,10.50
2011,05,24,09,06,10.50
2011,05,24,09,07,10.50
2011,05,24,09,08,10.50
2011,05,24,09,09,10.50
2011,05,24,09,10,10.50
2011,05,24,09,11,10.50
2011,05,24,09,12,10.50
2011,05,24,09,13,10.50
2011,05,24,09,14,10.50
2011,05,24,09,15,10.50
2011,05,24,09,16,10.60
2011,05,24,09,17,10.50
2011,05,24,09,18,10.50
2011,05,24,09,19,10.50
2011,05,24,09,20,10.50
2011,05,24,09,21,10.60
2011,05,24,09,22,10.60
2011,05,24,09,23,10.60
2011,05,24,09,24,10.60
2011,05,24,09,25,10.60
2011,05,24,09,26,10.60
2011,05,24,09,27,10.60
2011,05,24,09,28,10.60
2011,05,24,09,29,10.60
2011,05,24,09,30,10.60
2011,05,24,09,31,10.50
2011,05,24,09,32,10.60
2011,05,24,09,33,10.60
2011,05,24,09,34,10.60
2011,05,24,09,35,10.60
2011,05,24,09,36,10.60
2011,05,24,09,37,10.60
2011,05,24,09,38,10.60
2011,05,24,09,39,10.60
2011,05,24,09,40,10.60
2011,05,24,09,41,10.60
2011,05,24,09,42,10.70
2011,05,24,09,43,10.70
2011,05,24,09,44,10.70
2011,05,24,09,45,10.70
2011,05,24,09,46,10.70
2011,05,24,09,47,10.70
2011,05,24,09,48,10.70
2011,05,24,09,49,10.70
2011,05,24,09,50,10.70
2011,05,24,09,51,10.80
2011,05,24,09,52,10.80
2011,05,24,09,53,10.80
2011,05,24,09,54,10.80
2011,05,24,09,55,10.80
2011,05,24,09,56,10.80
2011,05,24,09,57,10.80
2011,05,24,09,58,10.80
2011,05,24,09,59,10.80
2011,05,24,10,00,10.80
2011,05,24,10,01,10.80
2011,05,24,10,02,10.80
2011,05,24,10,03,10.90
2011,05,24,10,04,10.90
2011,05,24,10,05,10.90
2011,05,24,10,06,10.90
2011,05,24,10,07,11.00
2011,05,24,10,08,11.00
2011,05,24,10,09,11.00
2011,05,24,10,10,11.10
2011,05,24,10,11,11.10
2011,05,24,10,12,11.10
2011,05,24,10,13,11.20
2011,05,24,10,14,11.20
2011,05,24,10,15,11.20
2011,05,24,10,16,11.30
2011,05,24,10,17,11.30
2011,05,24,10,18,11.30
2011,05,24,10,19,11.30
2011,05,24,10,20,11.30
2011,05,24,10,21,11.30
2011,05,24,10,22,11.30
2011,05,24,10,23,11.30
2011,05,24,10,24,11.30
2011,05,24,10,25,11.40
2011,05,24,10,26,11.40
2011,05,24,10,27,11.40
2011,05,24,10,28,11.40
2011,05,24,10,29,11.40
2011,05,24,10,30,11.50
2011,05,24,10,31,11.50
2011,05,24,10,32,11.50
2011,05,24,10,33,11.50
2011,05,24,10,34,11.50
2011,05,24,10,35,11.60
2011,05,24,10,36,11.60
2011,05,24,10,37,11.60
2011,05,24,10,38,11.60
2011,05,24,10,39,11.60
2011,05,24,10,40,11.70
2011,05,24,10,41,11.80
2011,05,24,10,42,11.80
2011,05,24,10,43,11.90
2011,05,24,10,44,11.90
2011,05,24,10,45,11.90
2011,05,24,10,46,11.90
2011,05,24,10,47,12.00
2011,05,24,10,48,12.00
2011,05,24,10,49,12.10
2011,05,24,10,50,12.10
2011,05,24,10,51,12.20
2011,05,24,10,52,12.20
2011,05,24,10,53,12.20
2011,05,24,10,54,12.20
2011,05,24,10,55,12.20
2011,05,24,10,56,12.20
2011,05,24,10,57,12.20
2011,05,24,10,58,12.30
2011,05,24,10,59,12.30
2011,05,24,11,00,12.30
2011,05,24,11,01,12.30
2011,05,24,11,02,12.40
2011,05,24,11,03,12.40
2011,05,24,11,04,12.40
2011,05,24,11,05,12.50
2011,05,24,11,06,12.50
2011,05,24,11,07,12.60
2011,05,24,11,08,12.70
2011,05,24,11,09,12.70
2011,05,24,11,10,12.80
2011,05,24,11,11,12.80
2011,05,24,11,12,12.80
2011,05,24,11,13,12.80
2011,05,24,11,14,12.80
2011,05,24,11,15,12.80
2011,05,24,11,16,12.80
2011,05,24,11,17,12.70
2011,05,24,11,18,12.70
2011,05,24,11,19,12.70
2011,05,24,11,20,12.70
2011,05,24,11,21,12.60
2011,05,24,11,22,12.60
2011,05,24,11,23,12.60
2011,05,24,11,24,12.60
2011,05,24,11,25,12.70
2011,05,24,11,26,12.70
2011,05,24,11,27,12.70
2011,05,24,11,28,12.70
2011,05,24,11,29,12.70
2011,05,24,11,30,12.70
2011,05,24,11,31,12.70
2011,05,24,11,32,12.70
2011,05,24,11,33,12.70
2011,05,24,11,34,12.80
2011,05,24,11,35,12.80
2011,05,24,11,36,12.80
2011,05,24,11,37,12.80
2011,05,24,11,38,12.70
2011,05,24,11,39,12.70
2011,05,24,11,40,12.70
2011,05,24,11,41,12.70
2011,05,24,11,42,12.60
2011,05,24,11,43,12.60
2011,05,24,11,44,12.60
2011,05,24,11,45,12.60
2011,05,24,11,46,12.60
2011,05,24,11,47,12.60
2011,05,24,11,48,12.60
2011,05,24,11,49,12.50
2011,05,24,11,50,12.50
2011,05,24,11,51,12.60
2011,05,24,11,52,12.60
2011,05,24,11,53,12.60
2011,05,24,11,54,12.60
2011,05,24,11,55,12.60
2011,05,24,11,56,12.60
2011,05,24,11,57,12.60
2011,05,24,11,58,12.60
2011,05,24,11,59,12.60
2011,05,24,12,00,12.60
2011,05,24,12,01,12.70
2011,05,24,12,02,12.60
2011,05,24,12,03,12.60
2011,05,24,12,04,12.60
2011,05,24,12,05,12.70
2011,05,24,12,06,12.70
2011,05,24,12,07,12.70
2011,05,24,12,08,12.70
2011,05,24,12,09,12.70
2011,05,24,12,10,12.70
2011,05,24,12,11,12.70
2011,05,24,12,12,12.70
2011,05,24,12,13,12.80
2011,05,24,12,14,12.80
2011,05,24,12,15,12.80
2011,05,24,12,16,12.90
2011,05,24,12,17,12.90
2011,05,24,12,18,13.00
2011,05,24,12,19,13.10
2011,05,24,12,20,13.20
2011,05,24,12,21,13.20
2011,05,24,12,22,13.30
2011,05,24,12,23,13.40
2011,05,24,12,24,13.50
2011,05,24,12,25,13.60
2011,05,24,12,26,13.70
2011,05,24,12,27,13.70
2011,05,24,12,28,13.70
2011,05,24,12,29,13.70
2011,05,24,12,30,13.70
2011,05,24,12,31,13.70
2011,05,24,12,32,13.70
2011,05,24,12,33,13.80
2011,05,24,12,34,13.80
2011,05,24,12,35,13.90
2011,05,24,12,36,14.00
2011,05,24,12,37,14.00
2011,05,24,12,38,14.00
2011,05,24,12,39,14.00
2011,05,24,12,40,14.00
2011,05,24,12,41,14.00
2011,05,24,12,42,14.00
2011,05,24,12,43,14.10
2011,05,24,12,44,14.10
2011,05,24,12,45,14.10
2011,05,24,12,46,14.10
2011,05,24,12,47,14.20
2011,05,24,12,48,14.20
2011,05,24,12,49,14.20
2011,05,24,12,50,14.20
2011,05,24,12,51,14.10
2011,05,24,12,52,14.10
2011,05,24,12,53,14.10
2011,05,24,12,54,14.10
2011,05,24,12,55,14.10
2011,05,24,12,56,14.10
2011,05,24,12,57,14.10
2011,05,24,12,58,14.10
2011,05,24,12,59,14.00
2011,05,24,13,00,13.90
2011,05,24,13,01,13.90
2011,05,24,13,02,13.90
2011,05,24,13,03,13.80
2011,05,24,13,04,13.80
2011,05,24,13,05,13.80
2011,05,24,13,06,13.80
2011,05,24,13,07,13.90
2011,05,24,13,08,13.90
2011,05,24,13,09,13.90
2011,05,24,13,10,13.90
2011,05,24,13,11,13.90
2011,05,24,13,12,13.90
2011,05,24,13,13,13.90
2011,05,24,13,14,13.90
2011,05,24,13,15,13.90
2011,05,24,13,16,13.90
2011,05,24,13,17,13.90
2011,05,24,13,18,13.90
2011,05,24,13,19,13.90
2011,05,24,13,20,13.90
2011,05,24,13,21,14.00
2011,05,24,13,22,14.00
2011,05,24,13,23,14.10
2011,05,24,13,24,14.10
2011,05,24,13,25,14.10
2011,05,24,13,26,14.20
2011,05,24,13,27,14.20
2011,05,24,13,28,14.30
2011,05,24,13,29,14.30
2011,05,24,13,30,14.40
2011,05,24,13,31,14.40
2011,05,24,13,32,14.40
2011,05,24,13,33,14.50
2011,05,24,13,34,14.50
2011,05,24,13,35,14.60
2011,05,24,13,36,14.60
2011,05,24,13,37,14.60
2011,05,24,13,38,14.50
2011,05,24,13,39,14.40
2011,05,24,13,40,14.20
2011,05,24,13,41,14.10
2011,05,24,13,42,14.00
2011,05,24,13,43,14.00
2011,05,24,13,44,14.00
2011,05,24,13,45,14.10
2011,05,24,13,46,14.20
2011,05,24,13,47,14.30
2011,05,24,13,48,14.40
2011,05,24,13,49,14.50
2011,05,24,13,50,14.50
2011,05,24,13,51,14.40
2011,05,24,13,52,14.30
2011,05,24,13,53,14.20
2011,05,24,13,54,14.10
2011,05,24,13,55,14.10
2011,05,24,13,56,14.10
2011,05,24,13,57,14.10
2011,05,24,13,58,14.20
2011,05,24,13,59,14.30
2011,05,24,14,00,14.30
2011,05,24,14,01,14.30
2011,05,24,14,02,14.40
2011,05,24,14,03,14.40
2011,05,24,14,04,14.30
2011,05,24,14,05,14.30
2011,05,24,14,06,14.20
2011,05,24,14,07,14.00
2011,05,24,14,08,13.90
2011,05,24,14,09,13.70
2011,05,24,14,10,13.70
2011,05,24,14,11,13.60
2011,05,24,14,12,13.50
2011,05,24,14,13,13.40
2011,05,24,14,14,13.30
2011,05,24,14,15,13.30
2011,05,24,14,16,13.30
2011,05,24,14,17,13.20
2011,05,24,14,18,13.20
2011,05,24,14,19,13.10
2011,05,24,14,20,13.00
2011,05,24,14,21,12.90
2011,05,24,14,22,12.90
2011,05,24,14,23,12.90
2011,05,24,14,24,12.90
2011,05,24,14,25,12.90
2011,05,24,14,26,12.90
2011,05,24,14,27,12.80
2011,05,24,14,28,12.80
2011,05,24,14,29,12.90
2011,05,24,14,30,12.90
2011,05,24,14,31,12.90
2011,05,24,14,32,12.90
2011,05,24,14,33,12.90
2011,05,24,14,34,12.90
2011,05,24,14,35,12.80
2011,05,24,14,36,12.80
2011,05,24,14,37,12.80
2011,05,24,14,38,12.80
2011,05,24,14,39,12.80
2011,05,24,14,40,12.70
2011,05,24,14,41,12.70
2011,05,24,14,42,12.60
2011,05,24,14,43,12.60
2011,05,24,14,44,12.60
2011,05,24,14,45,12.60
2011,05,24,14,46,12.60
2011,05,24,14,47,12.50
2011,05,24,14,48,12.50
2011,05,24,14,49,12.50
2011,05,24,14,50,12.50
2011,05,24,14,51,12.60
2011,05,24,14,52,12.60
2011,05,24,14,53,12.70
2011,05,24,14,54,12.70
2011,05,24,14,55,12.80
2011,05,24,14,56,12.80
2011,05,24,14,57,12.90
2011,05,24,14,58,13.00
2011,05,24,14,59,13.10
2011,05,24,15,00,13.20
2011,05,24,15,01,13.30
2011,05,24,15,02,13.40
2011,05,24,15,03,13.50
2011,05,24,15,04,13.50
2011,05,24,15,05,13.60
2011,05,24,15,06,13.70
2011,05,24,15,07,13.70
2011,05,24,15,08,13.80
2011,05,24,15,09,13.90
2011,05,24,15,10,14.00
2011,05,24,15,11,14.10
2011,05,24,15,12,14.20
2011,05,24,15,13,14.30
2011,05,24,15,14,14.40
2011,05,24,15,15,14.40
2011,05,24,15,16,14.50
2011,05,24,15,17,14.50
2011,05,24,15,18,14.60
2011,05,24,15,19,14.50
2011,05,24,15,20,14.50
2011,05,24,15,21,14.50
2011,05,24,15,22,14.40
2011,05,24,15,23,14.40
2011,05,24,15,24,14.40
2011,05,24,15,25,14.40
2011,05,24,15,26,14.30
2011,05,24,15,27,14.30
2011,05,24,15,28,14.20
2011,05,24,15,29,14.20
2011,05,24,15,30,14.20
2011,05,24,15,31,14.20
2011,05,24,15,32,14.20
2011,05,24,15,33,14.30
2011,05,24,15,34,14.30
2011,05,24,15,35,14.30
2011,05,24,15,36,14.40
2011,05,24,15,37,14.40
2011,05,24,15,38,14.50
2011,05,24,15,39,14.60
2011,05,24,15,40,14.70
2011,05,24,15,41,14.70
2011,05,24,15,42,14.70
2011,05,24,15,43,14.80
2011,05,24,15,44,14.80
2011,05,24,15,45,14.80
2011,05,24,15,46,14.80
2011,05,24,15,47,14.90
2011,05,24,15,48,15.00
2011,05,24,15,49,15.10
2011,05,24,15,50,15.10
2011,05,24,15,51,15.20
2011,05,24,15,52,15.20
2011,05,24,15,53,15.30
2011,05,24,15,54,15.40
2011,05,24,15,55,15.50
2011,05,24,15,56,15.60
2011,05,24,15,57,15.60
2011,05,24,15,58,15.60
2011,05,24,15,59,15.70
2011,05,24,16,00,15.70
2011,05,24,16,01,15.60
2011,05,24,16,02,15.60
2011,05,24,16,03,15.60
2011,05,24,16,04,15.50
2011,05,24,16,05,15.50
2011,05,24,16,06,15.40
2011,05,24,16,07,15.50
2011,05,24,16,08,15.50
2011,05,24,16,09,15.50
2011,05,24,16,10,15.40
2011,05,24,16,11,15.40
2011,05,24,16,12,15.30
2011,05,24,16,13,15.30
2011,05,24,16,14,15.20
2011,05,24,16,15,15.20
2011,05,24,16,16,15.20
2011,05,24,16,17,15.20
2011,05,24,16,18,15.20
2011,05,24,16,19,15.20
2011,05,24,16,20,15.30
2011,05,24,16,21,15.30
2011,05,24,16,22,15.30
2011,05,24,16,23,15.20
2011,05,24,16,24,15.20
2011,05,24,16,25,15.20
2011,05,24,16,26,15.10
2011,05,24,16,27,15.00
2011,05,24,16,28,14.90
2011,05,24,16,29,14.80
2011,05,24,16,30,14.80
2011,05,24,16,31,14.80
2011,05,24,16,32,14.80
2011,05,24,16,33,14.80
2011,05,24,16,34,14.70
2011,05,24,16,35,14.70
2011,05,24,16,36,14.70
2011,05,24,16,37,14.70
2011,05,24,16,38,14.70
2011,05,24,16,39,14.70
2011,05,24,16,40,14.70
2011,05,24,16,41,14.70
2011,05,24,16,42,14.60
2011,05,24,16,43,14.50
2011,05,24,16,44,14.50
2011,05,24,16,45,14.40
2011,05,24,16,46,14.40
2011,05,24,16,47,14.30
2011,05,24,16,48,14.30
2011,05,24,16,49,14.30
2011,05,24,16,50,14.20
2011,05,24,16,51,14.20
2011,05,24,16,52,14.20
2011,05,24,16,53,14.20
2011,05,24,16,54,14.20
2011,05,24,16,55,14.30
2011,05,24,16,56,14.30
2011,05,24,16,57,14.20
2011,05,24,16,58,14.20
2011,05,24,16,59,14.20
2011,05,24,17,00,14.30
2011,05,24,17,01,14.30
2011,05,24,17,02,14.30
2011,05,24,17,03,14.30
2011,05,24,17,04,14.30
2011,05,24,17,05,14.20
2011,05,24,17,06,14.20
2011,05,24,17,07,14.20
2011,05,24,17,08,14.20
2011,05,24,17,09,14.20
2011,05,24,17,10,14.20
2011,05,24,17,11,14.10
2011,05,24,17,12,14.00
2011,05,24,17,13,14.00
2011,05,24,17,14,14.00
2011,05,24,17,15,14.00
2011,05,24,17,16,14.00
2011,05,24,17,17,14.00
2011,05,24,17,18,14.00
2011,05,24,17,19,14.00
2011,05,24,17,20,14.00
2011,05,24,17,21,14.10
2011,05,24,17,22,14.10
2011,05,24,17,23,14.00
2011,05,24,17,24,13.90
2011,05,24,17,25,13.90
2011,05,24,17,26,13.90
2011,05,24,17,27,13.90
2011,05,24,17,28,13.90
2011,05,24,17,29,13.90
2011,05,24,17,30,14.00
2011,05,24,17,31,14.00
2011,05,24,17,32,14.10
2011,05,24,17,33,14.10
2011,05,24,17,34,14.10
2011,05,24,17,35,14.10
2011,05,24,17,36,14.10
2011,05,24,17,37,14.10
2011,05,24,17,38,14.10
2011,05,24,17,39,14.00
2011,05,24,17,40,14.00